Simultaneous Nadir Overpasses (SNOs) Predictions

Prediction of SNOs between AQUA and NPP Satellite Orbit:

Table of predicted SNOs for the next 14.0 days since TLE Epoch: 9/21/2018
Index Date (AQUA) Time (AQUA) Lat,Lon (AQUA) SZA (AQUA ) Date (NPP) Time (NPP) Lat,Lon (NPP) SZA (NPP ) Distance(km) Time Diff (sec)
1 09/21/2018 21:49:24 74.42, 87.48 98.11 09/21/2018 21:48:45 74.42, 87.48 98.15 0.15 39
2 09/21/2018 22:38:23 -75.83,-101.10 83.42 09/21/2018 22:39:01 -75.84,-101.04 83.47 2.02 38
3 09/24/2018 14:05:36 75.11,-154.88 98.34 09/24/2018 14:05:27 75.11,-154.83 98.33 1.58 9
4 09/24/2018 14:54:47 -75.91, 15.04 82.54 09/24/2018 14:55:56 -75.91, 14.95 82.58 2.56 69
5 09/27/2018 05:32:59 -73.93, 150.49 79.46 09/27/2018 05:32:04 -73.93, 150.45 79.40 1.34 55
6 09/27/2018 06:21:59 75.23, -38.65 99.17 09/27/2018 06:22:21 75.23, -38.72 99.16 2.16 22
7 09/29/2018 21:49:10 -74.63, -91.98 79.23 09/29/2018 21:48:45 -74.63, -91.98 79.21 0.09 25
8 09/29/2018 22:38:11 75.85, 79.00 99.46 09/29/2018 22:39:03 75.85, 79.01 99.41 0.38 52
9 10/02/2018 13:16:31 73.42,-146.46 102.97 10/02/2018 13:15:20 73.41,-146.53 103.07 2.39 71
10 10/02/2018 14:05:23 -75.25, 25.54 78.94 10/02/2018 14:05:28 -75.26, 25.60 78.97 2.00 5
11 10/05/2018 05:32:40 74.27, -28.70 103.05 10/05/2018 05:31:59 74.27, -28.69 103.09 0.11 41




NCC Satellite Simultaneous Nadir Overpasses (SNOs) Prediction Service
